sat.trackr.live / text

‹ back to catalog

STARLINK-36122

NORAD 66952 · 2025-286AD

PAYLOAD ACTIVE UNKNOWN

§ Identity

Operator
Country
US
Launch date
2025-12-07
Launch site
AFWTR
Launch vehicle
Mass (kg)
RCS (m²)

Purposes: comms

External: N2YO · Heavens-Above · Gunter

§ Orbital elements

Epoch: 2026-05-25T01:08:25.562112Z

Period
93.85 min
Inclination
53.1605°
Eccentricity
0.0000665
Mean motion
15.34412740 rev/d
Perigee alt
462.2 km
Apogee alt
463.1 km
Semi-major
6,840.8 km
B*
9.3483e-4
RAAN
3.3383°
Arg perigee
104.5622°
Mean anomaly
255.5454°
Rev number
2,711

§ Raw data

STARLINK-361221 66952U 25286AD  26145.04751808  .00031353  00000+0  93483-3 0  99962 66952  53.1605   3.3383 0000665 104.5622 255.5454 15.34412740 27119

JSON: /api/v1/satellites/66952 · /tle

For live sub-satellite position, see the globe view (requires WebGL).

§ Visibility from observer

Set your observer location to see the next 7 days of passes ≥ 10°. The values pass through the URL so the page stays shareable.

No JS? Fill the form by hand. The geolocation button needs JavaScript.